DUMMY MASS 1 [-]

Last updated on Wed Jun 28 2023 00:03:02 GMT+0000 (Coordinated Universal Time)

1 24925U 97048A 23178.09653157 .00000559 00000+0 61203-4 0 9991 2 24925 86.3349 108.4580 0007303 160.8116 199.3385 14.85743482398261

Satellite not in orbit

DUMMY MASS 1 [-]